Alma, MI

12:26 AM EST on January 22, 2018 (GMT -0500)
Gratiot Community

Weather History for KAMN - October, 2011

Change the Weather History Date:

Sunday, October 30, 2011

  Actual Average Record
Temperature  
Mean Temperature 37 °F -  
Max Temperature 50 °F 53 °F 77 °F (1999)
Min Temperature 24 °F 32 °F 20 °F (1988)
Degree Days  
Heating Degree Days 28    
Moisture  
Dew Point 31 °F    
Average Humidity 86    
Maximum Humidity 100    
Minimum Humidity 54    
Precipitation  
Precipitation 0.00 in - - ()
Sea Level Pressure  
Sea Level Pressure 30.13 in    
Wind  
Wind Speed 2 mph (SSE)    
Max Wind Speed 12 mph    
Max Gust Speed 18 mph    
Visibility 6 miles    
Events Fog , Rain    
Averages and records for this station are not official NWS values.
T = Trace of Precipitation, MM = Missing Value Source: NWS Daily Summary

Daily Weather History Graph

Daily Weather History Graph

Search for Another Location

Airport or City:

Trip Planner

Search our weather history database for the weather conditions in past years. The results will help you decide how hot, cold, wet, or windy it might be!

Date:

Astronomy

Oct. 30, 2011 Rise Set
Actual Time 8:10 AM EDT 6:33 PM EDT
Civil Twilight 7:41 AM EDT 7:02 PM EDT
Nautical Twilight 7:07 AM EDT 7:36 PM EDT
Astronomical Twilight 6:34 AM EDT 8:09 PM EDT
Moon 12:34 PM EDT (10/30) 9:56 PM EDT (10/30)
Length of Visible Light 11h 21m
Length of Day
10h 22m
Waxing Crescent, 20% of the Moon is Illuminated
Oct 30
Waxing Crescent
Nov 2
First Quarter
Nov 10
Full
Nov 18
Last Quarter
Nov 25
New

Hourly Weather History & Observations

Time (EDT) Temp. Windchill Dew Point Humidity Pressure Visibility Wind Dir Wind Speed Gust Speed Precip Events Conditions
12:11 AM 30.2 °F - 30.2 °F 100% 30.11 in 2.0 mi Calm Calm - N/A   Clear
12:31 AM 28.4 °F - 28.4 °F 100% 30.11 in 1.5 mi Calm Calm - N/A   Mist
12:51 AM 30.2 °F - 30.2 °F 100% 30.11 in 2.0 mi Calm Calm - N/A   Clear
1:11 AM 28.4 °F - 28.4 °F 100% 30.12 in 1.2 mi Calm Calm - N/A   Mist
1:32 AM 28.4 °F - 28.4 °F 100% 30.12 in 1.5 mi Calm Calm - N/A   Mist
1:52 AM 28.4 °F - 28.4 °F 100% 30.12 in 3.0 mi Calm Calm - N/A   Scattered Clouds
2:12 AM 28.4 °F - 28.4 °F 100% 30.12 in 2.5 mi Calm Calm - N/A   Clear
2:32 AM 28.4 °F - 28.4 °F 100% 30.12 in 1.2 mi Calm Calm - N/A   Mist
2:52 AM 26.6 °F - 26.6 °F 100% 30.13 in 3.0 mi Calm Calm - N/A   Clear
3:12 AM 26.6 °F - 26.6 °F 100% 30.13 in 3.0 mi Calm Calm - N/A   Clear
4:07 AM 26.6 °F - 26.6 °F 100% 30.13 in 3.0 mi Calm Calm - N/A   Mostly Cloudy
4:28 AM 26.6 °F - 26.6 °F 100% 30.13 in 0.5 mi Calm Calm - N/A Fog Light Freezing Fog
4:48 AM 26.6 °F - 26.6 °F 100% 30.13 in 2.5 mi Calm Calm - N/A   Mostly Cloudy
5:28 AM 26.6 °F - 26.6 °F 100% 30.14 in 3.0 mi Calm Calm - N/A   Scattered Clouds
5:48 AM 26.6 °F - 26.6 °F 100% 30.14 in 3.0 mi Calm Calm - N/A   Clear
6:08 AM 26.6 °F - 26.6 °F 100% 30.15 in 4.0 mi Calm Calm - N/A   Clear
6:28 AM 26.6 °F - 26.6 °F 100% 30.15 in 0.8 mi Calm Calm - N/A   Mist
6:48 AM 26.6 °F - 26.6 °F 100% 30.15 in 1.0 mi Calm Calm - N/A   Mist
7:09 AM 26.6 °F - 26.6 °F 100% 30.15 in 0.5 mi Calm Calm - N/A Fog Light Freezing Fog
7:29 AM 26.6 °F - 26.6 °F 100% 30.15 in 0.2 mi Calm Calm - N/A Fog Light Freezing Fog
7:49 AM 26.6 °F - 26.6 °F 100% 30.16 in 3.0 mi Calm Calm - N/A   Scattered Clouds
8:09 AM 24.8 °F - 24.8 °F 100% 30.16 in 4.0 mi Calm Calm - N/A   Clear
8:29 AM 24.8 °F - 24.8 °F 100% 30.17 in 3.0 mi Calm Calm - N/A   Clear
8:49 AM 26.6 °F - 26.6 °F 100% 30.18 in 2.5 mi Calm Calm - N/A   Clear
9:09 AM 30.2 °F - 30.2 °F 100% 30.18 in 2.5 mi Calm Calm - N/A   Clear
9:29 AM 30.2 °F - 30.2 °F 100% 30.18 in 2.5 mi Calm Calm - N/A   Clear
9:49 AM 32.0 °F - 32.0 °F 100% 30.19 in 2.5 mi Calm Calm - N/A   Clear
10:10 AM 33.8 °F - 33.8 °F 100% 30.19 in 2.5 mi Calm Calm - N/A   Clear
10:30 AM 33.8 °F - 33.8 °F 100% 30.18 in 4.0 mi Calm Calm - N/A   Clear
10:50 AM 37.4 °F - 37.4 °F 100% 30.18 in 5.0 mi Calm Calm - N/A   Clear
11:10 AM 37.4 °F 34.9 °F 37.4 °F 100% 30.17 in 7.0 mi South 3.5 mph - N/A   Clear
11:30 AM 39.2 °F 37.0 °F 39.2 °F 100% 30.17 in 7.0 mi South 3.5 mph - N/A   Clear
11:50 AM 41.0 °F 36.4 °F 41.0 °F 100% 30.16 in 10.0 mi South 6.9 mph - N/A   Scattered Clouds
12:10 PM 42.8 °F 38.6 °F 41.0 °F 93% 30.16 in 10.0 mi South 6.9 mph - N/A   Clear
12:30 PM 44.6 °F 40.7 °F 39.2 °F 81% 30.16 in 10.0 mi South 6.9 mph - N/A   Clear
12:50 PM 44.6 °F 40.7 °F 39.2 °F 81% 30.16 in 10.0 mi South 6.9 mph - N/A   Clear
1:31 PM 46.4 °F 41.5 °F 37.4 °F 71% 30.14 in 10.0 mi South 10.4 mph - N/A   Clear
1:51 PM 46.4 °F 41.9 °F 35.6 °F 66% 30.13 in 10.0 mi South 9.2 mph - N/A   Clear
2:11 PM 50.0 °F - 33.8 °F 54% 30.11 in 10.0 mi South 8.1 mph - N/A   Clear
2:31 PM 48.2 °F - 32.0 °F 54% 30.11 in 10.0 mi South 11.5 mph 18.4 mph N/A   Clear
2:51 PM 48.2 °F - 32.0 °F 54% 30.10 in 10.0 mi South 9.2 mph - N/A   Scattered Clouds
3:11 PM 48.2 °F - 32.0 °F 54% 30.09 in 10.0 mi South 11.5 mph 17.3 mph N/A   Scattered Clouds
3:31 PM 48.2 °F - 32.0 °F 54% 30.09 in 10.0 mi South 10.4 mph - N/A   Mostly Cloudy
3:52 PM 48.2 °F - 32.0 °F 54% 30.08 in 10.0 mi South 6.9 mph - N/A   Overcast
4:32 PM 46.4 °F 41.9 °F 33.8 °F 62% 30.07 in 10.0 mi SE 9.2 mph - N/A   Overcast
4:52 PM 46.4 °F 42.4 °F 33.8 °F 62% 30.06 in 10.0 mi SE 8.1 mph - N/A   Overcast
5:12 PM 46.4 °F 42.9 °F 32.0 °F 57% 30.05 in 10.0 mi ESE 6.9 mph - N/A   Overcast
5:32 PM 46.4 °F 41.9 °F 32.0 °F 57% 30.05 in 10.0 mi SE 9.2 mph - N/A   Mostly Cloudy
5:52 PM 46.4 °F 41.9 °F 33.8 °F 62% 30.04 in 10.0 mi SE 9.2 mph - N/A   Mostly Cloudy
6:07 PM 46.4 °F 43.5 °F 33.8 °F 62% 30.05 in 10.0 mi SSE 5.8 mph - N/A   Mostly Cloudy
6:27 PM 46.4 °F 41.9 °F 33.8 °F 62% 30.05 in 10.0 mi SSE 9.2 mph - N/A   Overcast
7:08 PM 44.6 °F 40.2 °F 35.6 °F 71% 30.07 in 10.0 mi SE 8.1 mph - N/A Rain Light Rain
7:28 PM 44.6 °F 40.7 °F 35.6 °F 71% 30.07 in 10.0 mi SE 6.9 mph - N/A   Overcast
7:48 PM 44.6 °F 40.7 °F 35.6 °F 71% 30.06 in 10.0 mi SE 6.9 mph - N/A   Overcast
8:08 PM 44.6 °F 39.7 °F 35.6 °F 71% 30.06 in 10.0 mi SE 9.2 mph - N/A   Overcast
8:28 PM 44.6 °F 40.7 °F 35.6 °F 71% 30.06 in 10.0 mi SSE 6.9 mph - N/A   Overcast
8:48 PM 44.6 °F 40.7 °F 35.6 °F 71% 30.05 in 10.0 mi SSE 6.9 mph - N/A   Overcast
9:08 PM 44.6 °F 40.2 °F 33.8 °F 66% 30.05 in 10.0 mi SSE 8.1 mph - N/A   Overcast
9:28 PM 44.6 °F 40.7 °F 33.8 °F 66% 30.05 in 10.0 mi SSE 6.9 mph - N/A   Overcast
9:49 PM 44.6 °F 40.2 °F 33.8 °F 66% 30.05 in 10.0 mi South 8.1 mph - N/A   Overcast
10:09 PM 44.6 °F 40.2 °F 33.8 °F 66% 30.05 in 10.0 mi South 8.1 mph - N/A   Overcast
10:29 PM 44.6 °F 39.7 °F 35.6 °F 71% 30.06 in 10.0 mi South 9.2 mph - N/A   Overcast
10:49 PM 44.6 °F 40.2 °F 35.6 °F 71% 30.06 in 10.0 mi South 8.1 mph - N/A   Overcast
11:09 PM 44.6 °F 40.2 °F 37.4 °F 76% 30.06 in 10.0 mi SSW 8.1 mph - N/A Rain Light Rain
11:29 PM 42.8 °F 38.6 °F 39.2 °F 87% 30.06 in 7.0 mi SSW 6.9 mph - N/A Rain Light Rain
11:49 PM 42.8 °F 40.1 °F 41.0 °F 93% 30.06 in 10.0 mi South 4.6 mph - N/A Rain Rain